www.pogodaiklimat.ru

Погода и климат >> Архив погоды >> Россия >> Ставропольский край >> Ставрополь


АРХИВ ПОГОДЫ в Ставрополе

Время (UTC), дата Ветер
(напр.,м/с)
 
Видим.   Явления Облачность Т
(С)
Тd
(С)
f
(%)
Тe
(С)
Тes
(С)
Комфортность P
(гПа)
Po
(гПа)
Тmin
(С)
Tmax
(С)
R
(мм)
R24
(мм)
S
(см)
00 18.08 С 2 20 км 8/3 1000 м
[Sc Ac trans]
+20.9 +16.8 77 +25 +25 комфорт 1009.0 958.1
03 18.08 С 2 20 км 8/4 1000 м
[Sc Ac trans]
+20.3 +17.2 82 +24 +24 комфорт 1009.3 958.2 +19.9
06 18.08 С 3 20 км 10/3 1000 м
[Sc Ac und]
+22.4 +17.3 73 +27 +29 душно 1008.6 957.9
09 18.08 С 4 20 км 8/3 1000 м
[Sc Ac trans Ci fib]
+26.5 +17.0 56 +30 +35 душно 1007.7 957.7
12 18.08 СЗ 3 20 км 10/3 1000 м
[Sc Ac und]
+27.2 +16.8 53 +31 +33 душно 1007.9 958.0
15 18.08 СЗ 5 20 км 3/0
[Ac trans]
+26.8 +15.1 49 +30 +30 душно 1008.4 958.4 +28.2
18 18.08 С 3 20 км 3/0
[Ac trans]
+23.4 +12.6 51 +26 +26 жарко 1010.7 959.9
21 18.08 СЗ 3 20 км 4/0
[Ac trans]
+21.9 +16.2 70 +26 +26 душно 1011.6 960.6
00 19.08 З 5 4000 м дымка 3/0
[Ac trans]
+19.6 +18.4 93 +22 +22 комфорт 1012.2 960.9
03 19.08 З 3 2000 м дымка 5/3 300 м
[St Ac trans Ci fib]
+19.1 +18.2 95 +21 +21 комфорт 1013.6 962.1 +18.8
06 19.08 З 4 10 км 4/3 300 м
[St Ac trans]
+23.8 +18.2 71 +28 +32 душно 1014.2 963.5
09 19.08 СЗ 4 20 км 3/3 600 м
[Cu hum]
+28.5 +15.7 46 +32 +39 душно 1013.6 963.6
12 19.08 С 3 20 км 4/4 1000 м
[Cu med, cong]
+30.4 +15.0 39 +33 +37 душно 1013.3 963.6
15 19.08 С 3 20 км 3/3 1500 м
[Sc]
+30.5 +12.7 34 +32 +32 жарко 1013.4 963.7 +31.5
18 19.08 СВ 3 20 км 3/0
[Ac trans]
+25.9 +12.5 43 +27 +27 жарко 1015.3 964.7
21 19.08 С 3 20 км ясно +23.9 +11.1 45 +25 +25 комфорт 1015.8 964.8
00 20.08 З 1 20 км 3/0
[Ac trans]
+20.5 +14.4 68 +24 +24 комфорт 1016.2 964.7
03 20.08 СЗ 2 20 км 3/0
[Ac trans]
+20.6 +14.2 67 +24 +24 комфорт 1016.4 964.9 +19.7
06 20.08 С 2 20 км 3/0
[Ci fib]
+27.9 +12.1 38 +29 +37 жарко 1015.6 965.4
09 20.08 С 3 20 км 9/0
[Ci]
+32.2 +10.0 26 +32 +42 жарко 1014.4 964.9
12 20.08 СВ 2 20 км 8/1 1000 м
[Sc diur, vesp Ci fib]
+33.2 +11.3 26 +33 +40 жарко 1013.6 964.3
15 20.08 С 3 20 км 9/3 1000 м
[Sc Ci fib]
+31.6 +10.7 28 +32 +32 жарко 1013.4 963.8 +34.3
18 20.08 С 2 20 км 4/0
[Ac trans]
+27.7 +9.4 32 +28 +28 жарко 1014.3 964.0
21 20.08 С 2 20 км 3/0
[Ac trans]
+26.3 +10.4 37 +27 +27 жарко 1014.6 964.1
00 21.08 С 1 20 км 5/0
[Ac trans]
+23.9 +11.6 46 +25 +25 комфорт 1014.1 963.2
03 21.08 В 2 20 км 8/0
[Ac trans Ci fib]
+21.9 +11.6 52 +24 +24 комфорт 1014.6 963.4 +21.1
06 21.08 В 3 20 км 8/0
[Ci fib]
+27.4 +10.4 35 +28 +34 жарко 1014.2 963.9
09 21.08 В 8-11
{11}
20 км 5/0
[Ci fib]
+33.2 +4.2 16 +31 +33 жарко 1012.3 962.9
12 21.08 В 9-13
{15}
20 км 4/0
[Ci fib]
+34.5 +5.9 17 +32 +33 жарко 1010.4 961.3
15 21.08 В 8-12
{14}
20 км 3/0
[Ci fib]
+32.9 +3.3 15 +30 +30 жарко 1010.1 960.8 +35.0
18 21.08 В 6
{12}
20 км 3/0
[Ci fib]
+28.2 +1.5 18 +26 +26 жарко 1011.1 961.0
21 21.08 В 4 20 км 3/0
[Ci fib]
+23.7 +5.7 31 +24 +24 комфорт 1011.7 960.8
00 22.08 В 2 20 км 3/0
[Ci fib]
+19.2 +7.3 46 +20 +20 тепло 1012.5 960.9
03 22.08 В 2 20 км 3/1 1000 м
[Sc Ci fib]
+18.1 +8.1 52 +19 +19 по сезону 1013.0 961.2 +16.9
06 22.08 В 6 20 км ясно +26.8 +6.9 28 +26 +29 жарко 1011.9 961.6
09 22.08 В 10-15
{15}
20 км ясно +33.3 +2.9 15 +30 +31 жарко 1010.4 961.1
12 22.08 В 9-14
{16}
20 км 6/0
[Ci fib]
+34.8 +1.8 12 +31 +32 жарко 1009.6 960.6
15 22.08 В 7-10
{14}
20 км 6/0
[Ci fib]
+33.0 +0.9 13 +30 +30 жарко 1009.9 960.6 +35.0
18 22.08 СВ 3
{10}
20 км 4/0
[Ac trans Ci fib]
+26.8 0.0 17 +25 +25 комфорт 1012.0 961.6
21 22.08 В 4 20 км 4/0
[Ac trans]
+23.2 +3.5 28 +23 +23 комфорт 1012.5 961.5
00 23.08 ЮВ 1 20 км ясно +20.8 +4.5 34 +23 +23 комфорт 1012.7 961.3
03 23.08 С 2 20 км 3/0
[Ac trans]
+20.3 +7.0 42 +22 +22 комфорт 1013.4 961.9 +15.5
06 23.08 СВ 5 20 км 9/0
[Ac trans]
+25.5 +4.1 25 +25 +27 комфорт 1012.8 962.1
09 23.08 СВ 5
{11}
20 км 8/3 1000 м
[Sc Ac trans Ci fib]
+30.5 +8.2 25 +30 +33 жарко 1011.5 961.8
12 23.08 В 7-12
{14}
20 км 8/0
[Ac trans Ci fib]
+35.4 +3.9 14 +32 +34 жарко 1009.6 960.7
15 23.08 В 7-10
{13}
20 км 8/0
[Ci fib]
+32.9 +5.2 18 +31 +31 жарко 1010.3 961.0 +35.6
18 23.08 В 3
{10}
20 км 3/0
[Ac trans]
+26.8 +8.0 30 +27 +27 жарко 1012.4 962.0
21 23.08 В 2 20 км 3/0
[Ac trans]
+24.2 +6.4 32 +24 +24 комфорт 1012.2 961.4
00 24.08 С 1 20 км ясно +22.3 +7.7 39 +23 +23 комфорт 1012.4 961.3
03 24.08 С 3 20 км 3/0
[Ac trans]
+21.4 +6.2 37 +22 +22 комфорт 1013.3 961.9 +21.1
06 24.08 В 4 20 км 6/0
[Ac trans]
+25.3 +12.4 45 +27 +30 жарко 1012.8 962.2
09 24.08 СВ 5 20 км 8/3 1000 м
[Sc Ac trans]
+30.2 +10.8 30 +30 +33 жарко 1011.1 961.4
12 24.08 В 4 20 км 9/0
[Ac trans]
+32.5 +10.6 26 +32 +35 жарко 1010.1 960.9
15 24.08 В 4 20 км 9/0
[Ac trans]
+29.2 +13.4 38 +31 +31 жарко 1011.3 961.5 +32.6
18 24.08 ЮЗ 3 20 км {ливн. осадки} 10/3 1000 м
[Cb calv Ac und]
+24.1 +15.1 57 +27 +27 жарко 1012.8 962.1
21 24.08 ЮЗ 4 20 км 8/0
[Ac trans]
+23.9 +14.4 55 +26 +26 жарко 1012.7 962.0

 

Местоположение метеостанции Ставрополь (Ставропольский край, Россия): широта 45.12 долгота 42.08 высота над уровнем моря 452 м.

В архиве по умолчанию представлена погода в Ставрополе за последнюю неделю. Архивные данные за месяц целиком и за предыдущие месяцы, начиная с января 2011 года, Вы можете получить, выбрав интересующий диапазон дат из раскрывающегося списка и нажав кнопку "Ввод!".


*Определитесь, кто Вы:
робот инопланетянин человек

Внимание! Время в таблицах - всемирное. Для получения местного времени необходимо прибавить поправку, которая равна 3 ч.

Смотрите также архив погоды в соседних городах и на ближайших метеорологических станциях:

Погода в Изобильном (Ставропольский край, Россия) (41 км)
Погода в Невинномысске (Ставропольский край, Россия) (55 км)
Погода в Светлограде (Ставропольский край, Россия) (66 км)
Погода в Армавире (Краснодарский край, Россия) (77 км)
Погода в Новоалександровске (Ставропольский край, Россия) (81 км)
Погода в Александровском (Ставропольский край, Россия) (85 км)
Погода в Красногвардейском (Ставропольский край, Россия) (92 км)
Погода в Отрадной (Краснодарский край, Россия) (93 км)
Погода в Черкесске (Карачаево-Черкессия, Россия) (100 км)
Погода в Городовиковске (Калмыкия, Россия) (106 км)

Пояснения к столбцам:

Ветер - указаны скорость ветра в м/с - средняя за 10 мин, порывы в срок и между сроками (в фигурных скобках) и направление, откуда дует ветер: С - северный, СВ - северо-восточный, В - восточный, ЮВ - юго-восточный, Ю - южный, ЮЗ - юго-западный, З - западный, СЗ - северо-западный.
Видимость - горизонтальная дальность видимости в метрах или километрах. При видимости от 1 до 10 км при отсутствии осадков обычно наблюдается дымка, при ухудшении видимости до 1 км и менее - туман. В сухую погоду видимость может ухудшаться дымом, пылью или мглою.
Явления - указаны атмосферные явления, наблюдавшиеся в срок или в последний час перед сроком; фигурными скобками обозначены явления, наблюдавшиеся между сроками (за 1-3 часа до срока); квадратными скобками обозначены град или гололедные отложения с указанием их диаметра в мм.
Облачность - указаны через наклонную черту общая и нижняя облачность в баллах и высота нижней границы облаков в метрах; квадратными скобками обозначены формы облаков: Ci - перистые, Cs - перисто-слоистые, Cc - перисто-кучевые, Ac - высококучевые, As - высокослоистые, Sc - слоисто-кучевые, Ns - слоисто-дождевые, Cu - кучевые, Cb - кучево-дождевые. Подробнее классификацию облаков см. в Атласе облаков (PDF).
T - Температура воздуха - температура, измеренная на высоте 2 м над землей.
Td - Температура точки росы - температура, при понижении до которой содержащийся в воздухе водяной пар достигнет насыщения.
f - Относительная влажность воздуха - влажноcть воздуха, измеренная на высоте 2 м над землей.
Te - Эффективная температура - температура, которую ощущает одетый по сезону человек в тени. Характеристика душности погоды. При расчете учитывается влияние влажности воздуха и скорости ветра на теплоощущения человека.
Tes - Эффективная температура на солнце - температура, которую ощущает человек, с поправкой на солнечный нагрев. Характеристика знойности погоды. Зависит от высоты солнца над горизонтом, облачности и скорости ветра. Ночью, в пасмурную погоду, а также при ветре 12 м/с и более поправка равна нулю.
P - Атмосферное давление - приведенное к уровню моря атмосферное давление.
Po - Атмосферное давление - измеренное на уровне метеостанции атмосферное давление.
Tmin - Минимальная температура - минимум температуры воздуха на высоте 2 м над землей.
Tmax - Максимальная температура - максимум температуры воздуха на высоте 2 м над землей.
R - Количество осадков - Количество выпавших осадков за период времени, мм. При наведении курсора мыши на число - период времени, за который выпало указанное количество осадков.
R24 - Количество осадков - Количество выпавших осадков за 24 часа, мм.
S - Снежный покров - Высота снежного покрова, см. При наведении курсора мыши на число - состояние снежного покрова и степень покрытия местности в баллах.